This is the latest recevied weather packets stored in our database for station/object N4OOJ-13. If no packets are shown the sender has not sent any weather packets the latest 10 day(s).
| Time | Temp. | Humidity | Pressure | Rain* | Wind** | Luminosity | Snow |
|---|---|---|---|---|---|---|---|
| 1777899632 | 19.44° C | 74% | 1020.9 hPa | 0 mm | - | - | - |
| 1777899030 | 18.33° C | 79% | 1020.9 hPa | 0 mm | - | - | - |
| 1777898429 | 17.78° C | 82% | 1020.7 hPa | 0 mm | - | - | - |
| 1777897830 | 16.11° C | 87% | 1020.7 hPa | 0 mm | - | - | - |
| 1777897224 | 14.44° C | 90% | 1020.6 hPa | 0 mm | - | - | - |
| 1777896617 | 13.33° C | 91% | 1020.6 hPa | 0 mm | - | - | - |
| 1777896017 | 11.67° C | 96% | 1020.5 hPa | 0 mm | - | - | - |
| 1777895424 | 10° C | 99% | 1020.4 hPa | 0 mm | - | - | - |
| 1777894818 | 8.89° C | 99% | 1020.4 hPa | 0 mm | - | - | - |
| 1777894223 | 7.22° C | 99% | 1020.2 hPa | 0 mm | - | - | - |
| 1777893623 | 6.67° C | 99% | 1020.2 hPa | 0 mm | - | - | - |
| 1777893023 | 6.67° C | 99% | 1020.1 hPa | 0 mm | - | - | - |
| 1777892418 | 6.67° C | 99% | 1020 hPa | 0 mm | - | - | - |
| 1777891831 | 6.67° C | 99% | 1019.9 hPa | 0 mm | - | - | - |
| 1777891226 | 6.67° C | 99% | 1019.8 hPa | 0 mm | - | - | - |
| 1777890624 | 6.11° C | 99% | 1019.9 hPa | 0 mm | - | - | - |
| 1777890017 | 6.11° C | 99% | 1019.8 hPa | 0 mm | - | - | - |
| 1777889424 | 6.67° C | 99% | 1019.8 hPa | 0 mm | - | - | - |
| 1777888818 | 6.67° C | 99% | 1019.8 hPa | 0 mm | - | - | - |
| 1777888219 | 6.67° C | 99% | 1019.7 hPa | 0 mm | - | - | - |
| 1777887618 | 6.67° C | 99% | 1019.8 hPa | 0 mm | - | - | - |
| 1777887017 | 7.22° C | 99% | 1019.7 hPa | 0 mm | - | - | - |
| 1777886431 | 7.22° C | 99% | 1019.8 hPa | 0 mm | - | - | - |
| 1777885830 | 7.22° C | 99% | 1019.8 hPa | 0 mm | - | - | - |
| 1777885225 | 7.22° C | 99% | 1019.8 hPa | 0 mm | - | - | - |
* Rain latest hour (hover to see other rain measurements)
** Current wind speed in m/s (hover to see current wind gust speed)